User: anonymous   Login
Location: Albany
(35.0000°S, 118.0000°E)
Time: 06:11:30
(UTC-04:00)
Language:

Atlas Centaur 2 - Orbit

View from above orbital plane
View from above orbital plane
View from above satellite
View from above satellite

Ground track
Ground track

The orbit data is extracted from the following two-line orbital elements,

1 00694U 63047A   16209.82110467  .00000512  00000-0  56232-4 0  9996
2 00694  30.3548 149.0302 0588990  98.0090 268.7725 14.01822929637166
Epoch (UTC): 27 July 2016 19:42:23
Eccentricity: 0.0588990
inclination: 30.3548°
perigee height: 459 km
apogee height: 1315 km
right ascension of ascending node: 149.0302°
argument of perigee: 98.0090°
revolutions per day: 14.01822929
mean anomaly at epoch: 268.7725°
orbit number at epoch: 63716

The dashed part of the orbit path shows where the satellite is in the earth's shadow,  

DLR